Location: Banff
(51.1667°N, 115.5667°W)
Time: 08:19:57
(UTC+00:00)

N. Korean satellite - Pass Details

Date: 01 December 2022
Orbit: 407 x 442 km, 97.3° (Epoch: 04 February)

Event Time Altitude Azimuth Distance (km) Brightness Sun altitude
Rises 13:12:38 0° 13° (NNE) 2,530 10.2 -19.7°
Reaches altitude 10° 13:14:42 10° 13° (NNE) 1,646 9.3 -19.4°
Maximum altitude 13:18:15 88° 290° (WNW) 477 6.4 -18.8°
Drops below altitude 10° 13:21:44 10° 195° (SSW) 1,616 9.2 -18.3°
Sets 13:23:45 0° 195° (SSW) 2,478 10.1 -18.0°
